Hourly Data Report for December 06, 2005

TORONTO CITY
ONTARIO

43°40'00.000" N
79°24'00.000" W
112.50 m
6158355
71508
XTO

Download Data

Hourly Data (December 2005)
Hourly Data Report for December 6, 2005
TIME
LST
Temp Definition
°C
Dew Point Definition
°C
Rel Hum Definition
%
Precip. Amount Definition
mm

Wind Dir Definition
10's deg

Wind Spd Definition
km/h
Visibility Definition
km
Stn Press Definition
kPa
Hmdx Definition


Wind Chill Definition


Weather Definition


00:00 -4.0 -8.2 73   LegendMM LegendMM   100.34     LegendNANA
01:00 -4.1 -8.3 73   LegendMM LegendMM   100.28     LegendNANA
02:00 -3.9 -8.5 70   LegendMM LegendMM   100.28     LegendNANA
03:00 -3.7 -8.7 68   LegendMM LegendMM   100.29     LegendNANA
04:00 -4.4 -8.5 73   LegendMM LegendMM   100.28     LegendNANA
05:00 -4.5 -8.7 72   LegendMM LegendMM   100.25     LegendNANA
06:00 -4.3 -9.3 68   LegendMM LegendMM   100.24     LegendNANA
07:00 -4.2 -9.4 67   LegendMM LegendMM   100.29     LegendNANA
08:00 -4.6 -9.6 68   LegendMM LegendMM   100.31     LegendNANA
09:00 -4.8 -9.7 69   LegendMM LegendMM   100.32     LegendNANA
10:00 -4.6 -9.5 69   LegendMM LegendMM   100.40     LegendNANA
11:00 -3.7 -10.8 58   LegendMM LegendMM   100.40     LegendNANA
12:00 -3.8 -13.3 48   LegendMM LegendMM   100.39     LegendNANA
13:00 -3.8 -13.1 48   LegendMM LegendMM   100.39     LegendNANA
14:00 -4.4 -12.2 54   LegendMM LegendMM   100.43     LegendNANA
15:00 -4.2 -13.6 48   LegendMM LegendMM   100.47     LegendNANA
16:00 -4.9 -13.0 53   LegendMM LegendMM   100.57     LegendNANA
17:00 -5.5 -12.6 57   LegendMM LegendMM   100.60     LegendNANA
18:00 -5.9 -12.1 62   LegendMM LegendMM   100.67     LegendNANA
19:00 -6.3 -11.8 65   LegendMM LegendMM   100.69     LegendNANA
20:00 -6.6 -11.0 71   LegendMM LegendMM   100.72     LegendNANA
21:00 -6.6 -10.9 71   LegendMM LegendMM   100.73     LegendNANA
22:00 -6.4 -11.4 68   LegendMM LegendMM   100.75     LegendNANA
23:00 -6.2 -11.8 64   LegendMM LegendMM   100.79     LegendNANA

Notes on Data Quality.

Legend

  • E = Estimated
  • M = Missing
  • NA = Not Available*
  • [empty] = Indicates an unobserved value
Date modified: